TimePDT,TemperatureF,Dew PointF,Humidity,Sea Level PressureIn,VisibilityMPH,Wind Direction,Wind SpeedMPH,Gust SpeedMPH,PrecipitationIn,Events,Conditions,WindDirDegrees,DateUTC
12:56 AM,60.1,50.0,69,29.94,10.0,ESE,9.2,-,N/A,,Overcast,120,2012-03-31 07:56:00
1:56 AM,59.0,50.0,72,29.91,10.0,ESE,11.5,-,N/A,,Overcast,120,2012-03-31 08:56:00
2:56 AM,59.0,50.0,72,29.89,10.0,SSE,6.9,-,N/A,,Scattered Clouds,150,2012-03-31 09:56:00
3:56 AM,60.1,48.9,67,29.86,10.0,South,11.5,-,N/A,,Mostly Cloudy,170,2012-03-31 10:56:00
4:56 AM,59.0,50.0,72,29.85,10.0,SSE,9.2,-,0.00,Rain,Light Rain,150,2012-03-31 11:56:00
5:56 AM,57.9,50.0,75,29.83,10.0,SE,10.4,17.3,0.00,Rain,Light Rain,140,2012-03-31 12:56:00
7:30 AM,59.0,48.2,67,29.77,10.0,SE,18.4,34.5,N/A,,Overcast,130,2012-03-31 14:30:00
7:51 AM,59.0,48.2,67,29.75,10.0,SE,23.0,33.4,N/A,,Mostly Cloudy,140,2012-03-31 14:51:00
7:56 AM,57.9,48.0,70,29.76,10.0,SE,20.7,31.1,N/A,,Mostly Cloudy,130,2012-03-31 14:56:00
8:56 AM,57.0,51.1,81,29.80,4.0,SSE,10.4,18.4,0.01,Rain,Light Rain,160,2012-03-31 15:56:00
9:09 AM,55.4,51.8,88,29.80,2.5,South,9.2,17.3,0.03,Rain,Rain,170,2012-03-31 16:09:00
9:17 AM,55.4,51.8,88,29.83,3.0,WSW,15.0,24.2,0.06,Rain,Rain,250,2012-03-31 16:17:00
9:56 AM,52.0,50.0,93,29.88,10.0,West,9.2,20.7,0.08,Rain,Light Rain,270,2012-03-31 16:56:00
10:56 AM,50.0,48.9,96,29.91,10.0,Variable,3.5,-,0.01,Rain,Light Rain,0,2012-03-31 17:56:00
11:56 AM,50.0,48.0,93,29.90,5.0,ESE,10.4,-,0.02,Rain,Light Rain,110,2012-03-31 18:56:00
12:56 PM,53.1,50.0,89,29.91,10.0,SE,11.5,-,0.01,,Overcast,140,2012-03-31 19:56:00
1:56 PM,55.0,46.0,72,29.91,10.0,SSE,8.1,16.1,N/A,,Overcast,160,2012-03-31 20:56:00
2:56 PM,60.1,41.0,49,29.89,10.0,SW,13.8,21.9,0.00,,Mostly Cloudy,230,2012-03-31 21:56:00
3:56 PM,60.1,39.0,46,29.89,10.0,SW,17.3,24.2,N/A,,Scattered Clouds,230,2012-03-31 22:56:00
4:56 PM,59.0,41.0,51,29.91,10.0,SSW,13.8,19.6,0.00,,Clear,210,2012-03-31 23:56:00
5:56 PM,57.9,37.9,47,29.92,10.0,SW,13.8,24.2,N/A,,Clear,220,2012-04-01 00:56:00
6:56 PM,55.9,37.9,51,29.93,10.0,SSW,5.8,17.3,N/A,,Partly Cloudy,200,2012-04-01 01:56:00
7:56 PM,50.0,44.1,80,29.97,6.0,South,8.1,21.9,0.04,Rain,Light Rain,190,2012-04-01 02:56:00
8:56 PM,50.0,48.9,96,29.99,10.0,SW,5.8,-,0.01,Rain,Light Rain,230,2012-04-01 03:56:00
9:56 PM,48.9,48.0,97,30.03,10.0,WSW,5.8,-,0.03,,Partly Cloudy,240,2012-04-01 04:56:00
10:56 PM,48.9,48.0,97,30.06,10.0,WSW,4.6,-,N/A,,Scattered Clouds,250,2012-04-01 05:56:00
11:56 PM,48.9,48.0,97,30.08,10.0,WSW,3.5,-,0.01,,Mostly Cloudy,250,2012-04-01 06:56:00